Tracking 18984 objects as of 24-Feb-2018
HD Live streaming from Space Station
objects crossing your sky now

FENGYUN 1C DEB

Track FENGYUN 1C DEB now!
10-day predictions


NORAD ID: 38717
Int'l Code: 1999-025ETJ
Perigee: 829.8 km
Apogee: 935.6 km
Inclination: 99.0 °
Period: 102.5 minutes
Semi major axis: 7253 km
RCS: 0.0012 m2 (small)
Launch date: May 10, 1999
Source: People's Republic of China (PRC)
Launch site: Taiyaun Space Center, China (TSC)

Note: This is SATELLITE DEBRIS
aabbcc
Your satellite tracking list
Your tracking list is empty




NASA's NSSDC Master Catalog

Two Line Element Set (TLE):
1 38717U 99025ETJ 18054.07050990  .00001019  00000-0  64132-3 0  9999
2 38717  99.0232   2.3610 0072899  44.7751  16.7778 14.05286306376106
Source of the keplerian elements: AFSPC